Location: Écuvilly
(49.6505°N, 2.9206°E)
Time: 05:42:21
(UTC+00:00)

Okean 1 Rocket - Pass Details

Date: 17 November 2025
Orbit: 599 x 628 km, 82.5° (Epoch: 16 December)

Event Time Altitude Azimuth Distance (km) Brightness Sun altitude
Rises 17:45:38 0° 165° (SSE) 2,891 6.4 -16.4°
Reaches altitude 10° 17:48:00 10° 156° (SSE) 1,985 5.5 -16.8°
Maximum altitude 17:51:58 35° 91° (E) 1,014 3.6 -17.4°
Enters shadow 17:51:58 35° 91° (E) 1,014 3.6 -17.4°
